Location: Staunton
(38.1490°N, 79.0720°W)
Time: 21:32:24
(UTC-04:00)

ISS - Pass Details

Date: 20 May 2018
Orbit: 402 x 407 km, 51.6° (Epoch: 23 May)

Event Time Altitude Azimuth Distance (km) Brightness Sun altitude
Rises 05:01:14 0° 311° (NW) 2,316 -0.1 -11.0°
Reaches altitude 10° 05:03:20 10° 315° (NW) 1,454 -1.1 -10.6°
Maximum altitude 05:06:34 63° 38° (NE) 450 -3.3 -10.1°
Drops below altitude 10° 05:09:48 10° 120° (ESE) 1,448 -0.7 -9.6°
Sets 05:11:53 0° 124° (ESE) 2,304 0.3 -9.3°
